Regional Weather Roundup
Issued by NWS

Home | Current Version | Previous Version | Graphics & Text | Print | Product List | Glossary On
Versions: 1 2 3 4 5 6 7 8 9 10 11 12 13 14 15 16 17 18 19 20 21 22 23 24 25 26 27 28 29 30 31 32 33 34 35 36 37 38 39 40 41 42 43 44 45 46 47 48 49 50
000
ASUS45 KBOU 111507
RWRCO

WEATHER ROUNDUP FOR COLORADO
NATIONAL WEATHER SERVICE DENVER/BOULDER CO
800 AM MST THU FEB 11 2016

NOTE: "FAIR" INDICATES FEW OR NO CLOUDS BELOW 12000 FEET WITH NO
SIGNIFICANT WEATHER AND/OR OBSTRUCTIONS TO VISIBILITY.

COZ001>005-013-030-031-111600-
...NORTHWEST COLORADO...

CITY           SKY/WX    TMP DP  RH WIND       PRES   REMARKS
CRAIG          CLOUDY     0  -4  83 CALM      30.42S
HAYDEN         CLOUDY    19   9  63 E14       30.39S WCI   6
MEEKER         CLOUDY    10   4  76 CALM      30.43R
MOUNT WERNER   NOT AVBL
STEAMBOAT SPGS CLOUDY    12   9  87 CALM      30.42S
WALDEN         CLOUDY    27  10  50 S6        30.34S WCI  20
$$

COZ006>008-011-111600-
...WEST CENTRAL VALLEYS...

CITY           SKY/WX    TMP DP  RH WIND       PRES   REMARKS
GRAND JUNCTION CLOUDY    21  18  88 SE8       30.44R WCI  11
MONTROSE       CLOUDY    22  13  68 S9        30.46R WCI  12
EAGLE          PTCLDY    10   7  85 CALM      30.51R
RIFLE          CLOUDY    15  10  80 S3        30.47R
DELTA          CLOUDY    28  22  78 NE6       30.46S WCI  21
NUCLA          CLOUDY    27  14  59 E6        30.46R WCI  20
$$

COZ017>023-064>068-111600-
...SOUTHWEST COLORADO...

CITY           SKY/WX    TMP DP  RH WIND       PRES   REMARKS
DURANGO        CLOUDY    14   9  80 E5        30.39R WCI   6
CORTEZ         CLOUDY    19  13  77 E7        30.41R WCI  10
PAGOSA SPRINGS CLOUDY    18  11  76 CALM      30.40R
TELLURIDE      CLOUDY    28   4  36 SE3       30.47R
WOLF CREEK PAS CLOUDY    30  -9  17 NW7       30.52R WCI  23
$$

COZ009-010-012-014-032>034-037-058>063-111600-
...CENTRAL COLORADO...

CITY           SKY/WX    TMP DP  RH WIND       PRES   REMARKS
ASPEN          CLOUDY    19   8  62 S6        30.42R WCI  11
BUENA VISTA    CLOUDY    23  14  68 CALM      30.35S
COPPER MTN     CLOUDY    27   1  33 W13       30.46S WCI  16
BERTHOUD PASS  FAIR      19  10  68 NW41G48   30.38F WCI  -2
COTTONWOOD PAS CLOUDY    41 -15   9 SW14G23   30.37S
GUNNISON       CLOUDY   -11 -11 100 E5        30.56R WCI -23
KREMMLING      CLOUDY    -6  -9  84 W3        30.49R
LEADVILLE      CLOUDY    20   1  43 NE7       30.41R WCI  11
MONARCH PASS   CLOUDY    23   1  39 W43G48    30.50F WCI   3
SALIDA         NOT AVBL
SUNLIGHT       CLOUDY    32   7  34 NW3         N/A
WILKERSON PASS CLOUDY    30  -4  22 W6        30.41S WCI  24
$$

COZ069>075-111600-
...SAN LUIS VALLEY/SANGRE DE CRISTO MOUNTAINS...

CITY           SKY/WX    TMP DP  RH WIND       PRES   REMARKS
ALAMOSA        CLOUDY    21  17  84 CALM      30.40R
LA VETA PASS   CLOUDY    28   5  37 MISG      30.38R
SAGUACHE       CLOUDY    27   9  46 NW17      30.40R WCI  14
$$

COZ035-036-038>040-111600-
...NORTHERN COLORADO FRONT RANGE...

CITY           SKY/WX    TMP DP  RH WIND       PRES   REMARKS
DENVER INTL AP CLOUDY    41  19  41 SW10      30.15R
DMNS CITY PARK NOT AVBL
AURORA         NOT AVBL
FRONT RANGE AP NOT AVBL
ERIE MUNI ARPT CLOUDY    30  22  73 NE3       30.14S
BOULDER MUN AP CLOUDY    46  14  27 N5        30.14R
CENTENNIAL     CLOUDY    40  17  39 SE5       30.17R
BROOMFIELD     PTSUNNY   52  10  19 W20       30.15R
FORT COLLINS   CLOUDY    30  19  64 N5        30.15R WCI  25
LONGMONT       CLOUDY    31  21  66 W7        30.17R WCI  25
$$

COZ041-046-047-076>085-087-088-111600-
...PIKES PEAK/PALMER DIVIDE AND SOUTHERN FOOTHILLS...

CITY           SKY/WX    TMP DP  RH WIND       PRES   REMARKS
COLO. SPRINGS  CLOUDY    32  18  56 NE9       30.21S WCI  24
A. F. ACADEMY  NOT AVBL
SCHRIEVER AFB  NOT AVBL
ELLICOTT       CLOUDY   N/A N/A N/A S3        30.20S
FALCON         NOT AVBL
FORT CARSON    NOT AVBL
LIMON          CLOUDY    24  16  71 N7        30.18S WCI  16
MONUMENT HILL  CLOUDY    34  10  37 SW10      30.23R WCI  26
TRINIDAD       CLOUDY    39  14  36 W9        30.23R
$$

COZ042>045-048>051-090-091-111600-
...NORTHEAST COLORADO...

CITY           SKY/WX    TMP DP  RH WIND       PRES   REMARKS
GREELEY ARPT   CLOUDY    28  25  86 W7        30.15R WCI  21
AKRON          CLOUDY    39  21  48 SW14      30.12S
BURLINGTON     CLOUDY    33  23  66 W9        30.16R WCI  25
WRAY           NOT AVBL
STERLING       CLOUDY    32  27  80 SW7       30.12S WCI  26
HOLYOKE        CLOUDY    36  30  80 W9        30.10S
FORT MORGAN    CLOUDY    31  22  68 W10       30.14S WCI  22
$$

COZ086-089-092>099-111600-
...SOUTHEAST COLORADO...

CITY           SKY/WX    TMP DP  RH WIND       PRES   REMARKS
PUEBLO         CLOUDY    33  23  66 CALM      30.20R
LA JUNTA       CLOUDY    37  22  54 SW10      30.19F
LAMAR          CLOUDY    35  26  69 SW6       30.19S WCI  30
SPRINGFIELD      N/A     38  23  55 W5        30.20R
$$



USA.gov is the U.S. government's official web portal to all federal, state and local government web resources and services.